Starlink 3100

operational
NORAD ID: 49144 Int'l Des: 2021-082 Owner: SPXS Country: US Constellation: starlink
LEOCIRCULAR

Über Starlink 3100

Beschreibung wird geladen...

Live-Position

3D-Globus wird geladen...

Nächste Überflüge

Höhenverlauf

Altitude vs Time

uPlot chart will show altitude changes over time

Zweizeiliger Elementsatz

1 49144U 21082Q 25304.25385999 -.00000165 00000-0 -60629-5 0 9991
2 49144 69.9994 260.7952 0002702 267.8142 92.2708 14.98329984226591
Epoch: 31. Okt. 2025 • Age: 5 hours

Aktueller Status

Höhe 575.9 km
Geschwindigkeit 7.58 km/s
Subsatellitenpunkt 28.27°N, 144.52°W
Startdatum 14. Sept. 2021
Alter 4.1 years
Typ internet

Technische Details

Klassifizierung Payload
Masse 297.00 kg
Trockenmasse 275.00 kg
Gesamtmasse 297.00 kg
Länge 0.20 m
Durchmesser 2.80 m
Spannweite 9.00 m
Form Box + pan
Hersteller SPXS
Bus-Typ Starlink
Phasenstatus In Orbit
Besitzer/Staat SPXS/US

Große Konstellationen

Loading constellations...